Location: NJAA Observatory
(40.6819°N, 74.8979°W)
Time: 22:52:40
(UTC-04:00)

Iridium 56 - Visible Passes

Search period start: 21 July 2017 00:00
Search period end: 31 July 2017 00:00
Orbit: 776 x 779 km, 86.4° (Epoch: 20 July)

Date Brightness Start Highest point End Pass type
(mag) Time Alt. Az. Time Alt. Az. Time Alt. Az.
21 Jul 8.3 02:01:04 10° E 02:01:25 10° ENE 02:01:46 10° ENE visible
21 Jul 5.4 03:38:43 31° S 03:41:17 87° W 03:46:32 10° N visible
22 Jul 6.2 03:05:34 30° SE 03:07:49 50° E 03:12:52 10° NNE visible
22 Jul 7.1 04:46:03 13° WSW 04:48:50 18° WNW 04:52:24 10° NNW visible
23 Jul 7.2 02:32:24 21° ESE 02:34:29 28° E 02:38:51 10° NNE visible
23 Jul 6.4 04:12:53 24° WSW 04:15:03 33° W 04:19:45 10° NNW visible
24 Jul 7.8 01:59:12 12° ESE 02:01:16 15° ENE 02:04:11 10° NE visible
24 Jul 5.6 03:39:42 40° SW 03:41:24 60° W 03:46:35 10° N visible
25 Jul 5.6 03:06:30 49° SSE 03:07:52 74° E 03:13:05 10° N visible
25 Jul 7.5 04:46:59 10° W 04:49:11 13° WNW 04:51:25 10° NW visible
26 Jul 6.5 02:33:17 35° ESE 02:34:28 39° E 02:39:18 10° NNE visible
26 Jul 6.8 04:13:46 20° WSW 04:15:18 23° WNW 04:19:25 10° NNW visible
27 Jul 7.3 02:00:05 20° E 02:01:11 22° E 02:05:05 10° NNE visible
27 Jul 6.0 03:40:34 37° WSW 03:41:34 41° W 03:46:30 10° NNW visible
28 Jul 8.0 01:26:51 11° E 01:28:01 12° ENE 01:29:47 10° NE visible
28 Jul 5.4 03:07:19 67° SW 03:07:58 77° W 03:13:12 10° N visible
29 Jul 5.8 02:34:05 56° ESE 02:34:29 57° E 02:39:36 10° N visible
29 Jul 7.2 04:14:34 15° W 04:15:36 16° WNW 04:18:48 10° NW visible
30 Jul 6.8 02:00:50 31° E 02:01:07 31° E 02:05:40 10° NNE visible
30 Jul 6.5 03:41:19 28° W 03:41:47 29° W 03:46:18 10° NNW visible
